Wind_Speed
16 16 15 15 16 17 17 17 18 18 20 21 20 20 21 22 22 22 21 22 22 23 23 23 24 24 24 24 24 23 22 21 21 22 21 21 21 19 20 21 21 21 21
15 15 15 15 16 16 17 18 19 20 21 21 21 21 22 22 22 21 21 22 22 23 22 22 23 23 23 23 22 22 21 21 21 21 21 20 20 19 20 21 21 21 22
15 15 15 16 17 17 18 18 19 20 21 20 20 21 21 21 21 21 21 21 22 22 22 22 22 22 22 22 21 21 21 20 20 21 20 20 20 20 20 21 22 22 23
16 16 17 18 18 18 18 19 19 19 19 18 19 20 20 21 21 21 22 21 21 21 21 21 21 21 21 22 21 21 20 19 19 19 20 20 19 19 20 20 21 22 23
17 17 18 19 18 18 18 18 18 18 18 18 19 19 20 20 21 21 21 21 21 21 21 20 20 20 21 20 20 20 20 19 19 19 20 19 18 19 20 21 22 22 23
19 19 19 19 19 18 18 18 19 18 18 18 19 19 20 20 20 20 20 19 20 20 20 19 20 20 20 19 20 19 19 19 20 20 20 20 20 20 21 22 22 23 23
19 19 19 19 20 20 20 19 19 19 19 19 20 20 20 20 20 19 19 19 19 19 19 20 20 20 19 19 19 19 19 20 20 20 21 22 22 22 22 22 23 23 24
20 20 20 19 19 20 20 20 20 19 19 19 20 19 19 19 19 19 19 19 19 20 20 19 19 19 20 19 19 19 20 21 21 21 21 23 24 24 23 24 24 24 24
21 21 20 20 20 20 20 21 21 20 19 19 19 19 19 19 19 19 19 19 19 19 19 19 20 20 20 20 19 19 20 20 21 21 21 23 24 24 24 25 25 24 24
21 21 21 20 20 21 21 21 21 21 21 20 20 19 19 19 19 18 18 19 18 18 18 17 18 19 19 20 20 20 21 21 22 22 22 23 24 24 25 26 26 26 25
22 22 21 21 21 22 22 22 21 21 21 21 21 20 20 20 19 18 17 18 17 18 18 18 18 18 18 19 19 20 21 21 22 23 23 23 24 24 25 25 26 26 26
22 22 22 22 22 22 22 22 21 21 21 21 21 20 20 19 19 18 18 18 17 17 17 17 17 18 18 19 19 20 20 20 21 22 23 23 23 23 24 25 25 25 25
23 23 23 23 23 23 23 22 21 21 21 21 20 19 19 19 18 17 17 18 17 18 19 18 18 18 19 20 20 20 20 21 21 22 23 23 23 23 23 23 24 25 25
23 23 23 23 23 22 21 21 20 20 20 20 19 19 19 18 17 18 18 18 18 18 18 18 19 19 20 20 20 20 20 21 22 22 22 23 23 22 22 23 24 24 25
23 23 23 22 22 21 20 20 20 20 20 18 17 18 18 17 18 19 19 19 19 19 20 20 20 20 20 20 20 20 21 21 21 22 22 22 22 22 22 22 23 24 23
23 22 22 21 21 20 20 20 19 19 19 18 18 18 18 19 19 20 20 20 20 21 21 20 21 20 20 20 21 21 21 21 21 21 21 21 21 22 23 23 23 22 22
22 22 22 22 21 21 21 20 20 19 19 18 19 19 19 19 20 20 20 20 21 20 20 19 19 19 20 20 21 21 21 20 20 20 20 21 21 22 22 22 22 22 22
21 21 21 22 21 21 20 20 19 19 19 19 19 19 18 19 19 18 18 19 19 20 20 19 20 20 20 20 20 20 20 20 20 20 20 20 21 21 22 21 21 22 22
21 21 21 21 21 21 20 19 19 19 19 19 19 19 19 19 18 18 18 18 19 19 19 19 20 20 20 20 20 20 19 19 19 19 19 19 20 21 21 21 21 22 22
20 20 19 20 20 20 20 20 19 19 19 18 18 19 19 19 18 18 18 18 18 18 18 18 18 19 20 19 19 19 19 18 18 18 18 19 19 19 19 19 20 21 21
19 18 18 19 20 19 18 19 19 18 18 18 18 18 18 18 18 18 18 18 18 17 17 17 18 18 19 18 18 18 17 17 18 17 18 18 18 18 18 19 19 20 19
18 18 18 17 17 17 16 16 16 16 17 17 17 18 18 17 18 18 18 18 17 16 16 16 16 16 17 17 16 16 16 16 16 17 17 17 18 18 18 18 19 19 19
17 17 16 16 16 16 16 16 16 16 16 16 16 16 16 17 17 18 18 16 15 15 15 15 15 15 16 16 15 15 15 15 15 15 16 16 16 16 17 17 18 18 18
17 16 15 16 16 16 16 16 16 16 16 16 16 15 15 16 16 16 15 15 15 15 16 16 16 15 16 15 15 14 14 14 14 14 15 16 16 16 16 16 16 16 17
16 15 15 15 16 16 16 15 15 15 15 15 15 15 16 16 15 15 15 15 16 16 16 16 16 15 15 15 14 14 13 14 14 14 15 15 15 15 15 16 15 15 15
15 14 15 15 15 15 15 15 15 15 15 15 15 16 16 16 16 16 16 16 17 17 16 17 16 16 15 15 14 14 14 14 14 14 15 15 15 15 15 15 15 15 15
Wind_Direction
279 277 278 279 280 280 278 280 282 283 284 283 280 281 281 282 284 283 283 283 284 284 282 280 281 283 286 286 287 288 288 287 288 290 291 289 288 289 289 287 285 284 285
276 275 278 281 283 283 284 284 285 286 287 284 284 285 284 284 283 283 282 283 284 283 281 281 280 283 285 286 288 288 288 289 290 290 289 289 291 292 291 290 287 287 287
276 277 280 282 285 284 284 283 283 285 286 286 285 287 285 283 282 282 282 284 284 283 282 281 281 282 284 288 289 289 289 290 291 291 290 289 291 293 293 292 290 289 289
276 277 280 281 283 283 284 283 283 285 287 288 288 288 287 286 283 282 282 282 283 284 283 281 281 282 284 286 288 289 290 291 293 293 293 292 293 296 295 293 293 291 289
279 278 279 279 280 282 284 285 285 284 288 289 289 289 288 288 287 285 283 283 283 283 282 281 282 284 286 284 284 287 289 290 292 295 293 293 295 297 296 296 296 295 294
281 278 279 279 279 282 285 288 286 285 288 289 289 290 289 288 288 289 287 285 285 285 284 284 284 286 286 285 284 285 286 288 290 293 292 294 297 297 297 297 296 296 295
281 280 276 277 279 281 285 288 287 287 288 289 289 290 289 289 290 289 287 286 285 285 285 284 284 287 288 287 286 286 286 287 290 293 294 295 296 296 297 297 298 299 298
280 281 277 276 278 282 285 286 286 287 288 288 289 289 289 290 290 287 286 287 286 284 283 281 283 285 284 285 287 286 284 285 288 291 294 295 295 296 297 297 298 299 300
279 280 279 276 276 280 283 285 287 286 287 287 287 288 289 291 292 289 286 287 286 285 283 282 283 282 284 285 287 287 287 286 286 288 290 293 294 295 297 298 298 299 301
278 278 277 276 276 279 283 285 286 287 287 285 286 288 288 289 290 288 287 287 286 286 285 285 284 285 287 288 290 291 291 291 290 291 293 295 295 296 297 297 297 297 299
278 277 276 276 276 279 283 285 286 286 285 285 285 286 287 288 288 287 287 288 289 287 285 284 285 287 290 292 294 295 295 293 293 294 294 294 295 296 297 298 298 298 299
276 276 275 275 276 278 281 283 285 284 283 283 284 284 284 287 288 285 287 286 287 288 287 286 286 287 290 294 296 296 297 297 297 297 297 296 298 299 299 299 300 300 299
275 275 274 275 276 278 279 282 282 283 283 282 284 284 283 283 284 284 284 287 288 288 287 287 288 289 290 292 295 296 296 298 300 300 300 299 300 301 300 301 301 300 300
275 275 274 275 275 275 277 280 282 282 282 283 283 283 282 280 281 284 285 286 288 289 288 286 286 288 290 290 292 295 296 297 299 300 300 301 300 300 301 303 304 304 303
277 274 273 272 273 274 276 277 278 279 281 284 282 281 281 280 280 281 283 286 287 289 288 287 287 287 288 290 293 294 296 297 299 300 301 302 302 302 302 305 306 307 306
278 275 272 272 273 275 277 276 279 280 280 280 282 284 283 283 282 281 283 285 286 287 287 287 288 288 288 290 292 294 295 297 300 302 304 304 304 303 303 305 308 309 309
280 279 275 274 275 276 278 277 278 278 278 276 279 281 281 282 282 282 283 284 286 287 289 290 291 291 290 289 290 293 296 297 299 302 305 307 306 304 305 307 308 309 312
281 280 276 275 274 274 274 275 274 273 274 274 276 278 279 281 282 283 284 284 284 285 287 287 289 290 290 291 292 295 299 300 300 301 305 307 308 308 308 308 308 309 311
281 279 276 275 274 273 273 273 273 272 272 273 275 276 280 281 281 281 282 284 284 284 285 286 287 289 291 293 295 298 300 301 301 302 303 305 307 309 309 309 310 311 312
281 279 275 274 274 273 273 273 273 272 272 272 276 278 280 282 280 280 281 283 284 285 287 288 290 293 293 294 297 300 301 302 303 303 305 306 307 309 310 310 312 314 315
281 279 276 275 274 272 273 273 272 272 270 271 274 278 279 281 281 281 284 285 285 287 290 292 292 295 296 296 298 301 303 304 304 305 306 308 310 312 313 314 316 318 318
279 278 275 274 277 278 276 274 273 271 271 272 273 275 277 279 281 281 281 282 282 285 289 293 296 298 299 299 301 302 303 304 305 307 310 310 311 313 315 316 317 317 318
280 279 273 269 273 276 277 277 273 269 272 277 277 275 277 280 281 282 281 282 283 285 289 291 294 297 300 301 302 302 304 305 306 307 310 313 314 316 318 320 321 320 320
277 276 272 269 270 273 273 275 273 271 274 279 279 278 280 281 281 282 281 281 283 286 290 292 293 298 301 301 301 303 305 307 308 309 311 313 314 317 321 323 323 323 324
276 274 273 274 272 270 270 274 275 273 275 278 278 277 278 278 279 280 281 282 283 284 286 289 292 295 296 297 298 300 301 304 306 307 312 315 315 317 321 323 322 323 325
274 274 275 277 276 272 272 276 276 275 277 278 279 279 277 278 279 279 280 281 281 282 284 288 288 291 293 296 298 301 303 303 304 307 310 314 315 315 319 322 322 323 324
Height
5793 5793 5793 5793 5792 5792 5792 5792 5792 5792 5791 5791 5790 5789 5789 5788 5787 5787 5786 5785 5784 5783 5782 5781 5780 5780 5779 5778 5777 5776 5775 5774 5773 5772 5771 5770 5768 5767 5766 5764 5763 5761 5760
5789 5789 5789 5789 5788 5788 5788 5788 5787 5787 5786 5785 5784 5783 5783 5782 5781 5781 5780 5779 5778 5777 5776 5775 5774 5774 5773 5772 5771 5770 5769 5768 5767 5766 5765 5764 5762 5761 5760 5758 5756 5755 5753
5785 5785 5785 5785 5784 5784 5783 5783 5783 5782 5781 5780 5779 5778 5777 5776 5776 5775 5774 5773 5772 5771 5770 5769 5769 5768 5767 5766 5765 5764 5763 5762 5761 5760 5759 5758 5757 5755 5754 5752 5750 5748 5747
5780 5781 5780 5780 5780 5779 5779 5778 5777 5777 5775 5774 5773 5772 5771 5770 5769 5769 5768 5767 5766 5765 5764 5763 5763 5762 5761 5760 5759 5759 5758 5757 5756 5754 5753 5752 5751 5749 5748 5746 5744 5742 5739
5775 5776 5776 5776 5775 5775 5774 5773 5772 5771 5770 5769 5768 5767 5766 5764 5764 5763 5762 5761 5760 5759 5759 5758 5757 5757 5755 5754 5754 5753 5752 5751 5750 5749 5748 5747 5745 5743 5742 5740 5738 5735 5733
5770 5770 5770 5770 5770 5770 5769 5768 5767 5766 5765 5764 5763 5761 5760 5759 5758 5757 5756 5755 5755 5754 5753 5752 5752 5751 5750 5749 5748 5747 5747 5746 5745 5744 5742 5741 5739 5737 5736 5734 5731 5729 5727
5765 5765 5765 5765 5765 5765 5764 5763 5762 5761 5760 5759 5757 5756 5755 5754 5752 5751 5750 5750 5749 5749 5748 5747 5746 5745 5745 5744 5742 5742 5741 5740 5739 5738 5736 5734 5733 5731 5729 5727 5725 5722 5720
5760 5760 5759 5760 5760 5760 5759 5758 5757 5756 5755 5754 5752 5751 5750 5748 5747 5746 5745 5744 5744 5743 5742 5742 5741 5740 5739 5738 5737 5736 5735 5734 5732 5731 5730 5728 5726 5724 5722 5720 5718 5716 5713
5755 5755 5754 5754 5754 5754 5753 5753 5752 5751 5749 5748 5747 5746 5745 5743 5742 5741 5740 5739 5738 5737 5737 5736 5735 5734 5734 5733 5732 5731 5729 5727 5726 5725 5723 5721 5719 5717 5715 5713 5711 5709 5707
5749 5749 5749 5749 5749 5748 5748 5747 5746 5745 5744 5743 5742 5741 5740 5738 5737 5735 5734 5734 5733 5732 5732 5731 5730 5729 5728 5727 5726 5724 5723 5721 5720 5718 5717 5715 5712 5710 5708 5706 5704 5702 5699
5743 5743 5743 5743 5743 5743 5742 5741 5740 5739 5738 5737 5736 5735 5734 5733 5732 5731 5729 5729 5728 5727 5727 5726 5725 5724 5723 5722 5720 5719 5717 5715 5713 5712 5710 5708 5706 5703 5701 5698 5696 5694 5692
5737 5737 5737 5736 5736 5737 5736 5735 5734 5733 5732 5731 5730 5729 5728 5728 5727 5726 5725 5724 5723 5722 5722 5721 5720 5719 5718 5716 5715 5713 5711 5709 5707 5706 5704 5702 5699 5697 5694 5691 5689 5686 5684
5731 5731 5730 5730 5730 5730 5729 5729 5728 5727 5726 5725 5724 5723 5722 5722 5721 5720 5720 5719 5718 5717 5716 5715 5714 5713 5712 5711 5709 5708 5706 5704 5702 5700 5697 5695 5692 5690 5687 5685 5682 5679 5677
5724 5724 5724 5723 5723 5723 5722 5722 5721 5720 5720 5719 5718 5717 5717 5716 5716 5715 5715 5714 5713 5712 5711 5710 5709 5707 5706 5705 5704 5702 5700 5698 5696 5694 5691 5689 5686 5683 5681 5678 5676 5673 5670
5717 5717 5716 5716 5716 5716 5715 5715 5714 5714 5713 5712 5712 5711 5711 5711 5710 5710 5709 5708 5707 5706 5705 5704 5703 5702 5700 5699 5697 5696 5694 5692 5690 5687 5685 5682 5680 5677 5674 5672 5669 5666 5663
5710 5710 5709 5709 5709 5709 5709 5709 5708 5708 5707 5706 5706 5705 5705 5704 5704 5703 5703 5702 5701 5700 5699 5698 5696 5695 5694 5693 5691 5689 5688 5685 5683 5681 5679 5676 5673 5671 5668 5665 5663 5659 5656
5704 5703 5703 5702 5702 5702 5702 5702 5702 5702 5701 5700 5700 5699 5699 5698 5698 5697 5696 5696 5694 5693 5693 5691 5690 5689 5688 5687 5685 5683 5681 5679 5677 5675 5672 5670 5667 5665 5662 5659 5657 5654 5651
5697 5696 5696 5696 5696 5696 5695 5695 5695 5695 5695 5694 5694 5694 5693 5692 5691 5690 5690 5689 5688 5687 5686 5685 5684 5683 5682 5680 5679 5677 5675 5673 5671 5669 5667 5664 5662 5659 5657 5654 5651 5648 5645
5690 5690 5689 5689 5689 5689 5689 5688 5688 5688 5688 5688 5688 5688 5687 5686 5685 5684 5683 5683 5682 5681 5680 5679 5678 5677 5676 5674 5673 5671 5669 5667 5665 5663 5661 5659 5656 5654 5651 5649 5646 5643 5640
5684 5683 5683 5682 5682 5682 5682 5682 5682 5681 5681 5681 5681 5681 5681 5680 5679 5678 5678 5677 5676 5676 5675 5674 5672 5671 5670 5668 5667 5665 5663 5661 5660 5658 5655 5653 5651 5648 5646 5643 5641 5638 5635
5678 5678 5677 5677 5676 5676 5676 5675 5675 5675 5674 5674 5675 5675 5675 5674 5673 5673 5672 5672 5671 5670 5669 5668 5667 5666 5664 5663 5661 5660 5658 5656 5655 5653 5650 5648 5646 5643 5641 5638 5636 5633 5630
5672 5671 5671 5671 5671 5670 5670 5669 5669 5669 5669 5669 5669 5669 5669 5668 5668 5667 5667 5666 5665 5665 5664 5663 5662 5660 5659 5658 5656 5655 5653 5652 5650 5648 5646 5644 5642 5639 5637 5634 5632 5629 5626
5667 5666 5665 5666 5665 5665 5665 5664 5664 5664 5664 5664 5663 5663 5663 5663 5662 5662 5661 5661 5660 5660 5659 5658 5657 5656 5655 5653 5652 5650 5649 5647 5646 5644 5642 5640 5637 5635 5633 5630 5627 5624 5622
5661 5661 5660 5660 5660 5660 5660 5659 5659 5659 5659 5658 5658 5658 5658 5658 5657 5657 5656 5656 5656 5655 5655 5654 5653 5652 5650 5649 5648 5646 5645 5643 5642 5640 5638 5636 5634 5632 5629 5626 5624 5621 5618
5655 5655 5655 5655 5655 5654 5654 5654 5654 5654 5654 5653 5653 5653 5653 5653 5652 5652 5652 5651 5651 5650 5650 5649 5648 5647 5646 5645 5644 5642 5641 5639 5638 5636 5634 5632 5630 5628 5625 5623 5620 5618 5615
5651 5650 5650 5650 5650 5650 5650 5650 5649 5649 5649 5648 5648 5648 5648 5648 5648 5647 5647 5647 5646 5645 5645 5644 5643 5642 5642 5641 5639 5638 5637 5636 5634 5632 5631 5629 5627 5625 5622 5620 5617 5615 5612